Weather History for Raleigh-Durham Airport, NC

Change the Weather History Date:

Tuesday, December 11, 2012

  Actual Average Record
Temperature  
Mean Temperature 58 °F 44 °F  
Max Temperature 65 °F 55 °F 74 °F (2007)
Min Temperature 50 °F 34 °F 13 °F (1968)
Degree Days  
Heating Degree Days 7 21  
Month to date heating degree days 93 212  
Since 1 July heating degree days 787 793  
Cooling Degree Days 0 0  
Month to date cooling degree days 3 0  
Year to date cooling degree days 1874 1728  
Growing Degree Days 8 (Base 50)    
Moisture  
Dew Point 44 °F    
Average Humidity 62    
Maximum Humidity 84    
Minimum Humidity 40    
Precipitation  
Precipitation 0.00 in 0.10 in 2.63 in (1936)
Month to date precipitation 0.09 1.10  
Year to date precipitation 37.94 41.37  
Snow  
Snow 0.00 in 0.00 in 9.10 in (1958)
Month to date snowfall 0.0 0.1  
Since 1 July snowfall 0.0 0.2  
Snow Depth 0.00 in    
Sea Level Pressure  
Sea Level Pressure 29.92 in    
Wind  
Wind Speed 7 mph (North)    
Max Wind Speed 18 mph    
Max Gust Speed 22 mph    
Visibility 10 miles    
Events      
T = Trace of Precipitation, MM = Missing Value Source: NWS Daily Summary

Daily Weather History Graph

Daily Weather History Graph

Search for Another Location

Airport:

Trip Planner

Search our weather history database for the weather conditions in past years. The results will help you decide how hot, cold, wet, or windy it might be!

Date:

Astronomy

Dec. 11, 2012 Rise Set
Actual Time 7:15 AM EST 5:01 PM EST
Civil Twilight 6:47 AM EST 5:30 PM EST
Nautical Twilight 6:15 AM EST 6:02 PM EST
Astronomical Twilight 5:44 AM EST 6:33 PM EST
Moon 5:10 AM EST (12/11) 3:37 PM EST (12/11)
Length of Visible Light 10h 42m
Length of Day
9h 45m
Waning Crescent, 4% of the Moon is Illuminated
Dec 11
Waning Crescent
Dec 13
New
Dec 20
First Quarter
Dec 28
Full
Jan 4
Last Quarter

Hourly Weather History & Observations

Time (EST) Temp. Dew Point Humidity Pressure Visibility Wind Dir Wind Speed Gust Speed Precip Events Conditions
12:51 AM 64.9 °F 57.0 °F 75% 29.73 in 10.0 mi SW 12.7 mph - N/A   Mostly Cloudy
1:51 AM 63.0 °F 57.0 °F 81% 29.74 in 10.0 mi SW 10.4 mph - N/A   Mostly Cloudy
2:51 AM 63.0 °F 57.0 °F 81% 29.76 in 10.0 mi SW 9.2 mph - N/A   Mostly Cloudy
3:51 AM 63.0 °F 57.0 °F 81% 29.78 in 10.0 mi SW 8.1 mph - N/A   Mostly Cloudy
4:25 AM 62.6 °F 57.2 °F 82% 29.78 in 10.0 mi SW 9.2 mph - N/A   Mostly Cloudy
4:51 AM 62.1 °F 57.0 °F 84% 29.78 in 10.0 mi SSW 8.1 mph - N/A   Scattered Clouds
5:51 AM 60.1 °F 55.9 °F 86% 29.80 in 10.0 mi WSW 6.9 mph - N/A   Mostly Cloudy
6:32 AM 60.8 °F 53.6 °F 77% 29.83 in 10.0 mi Variable 5.8 mph - N/A   Mostly Cloudy
6:38 AM 59.0 °F 50.0 °F 72% 29.84 in 10.0 mi North 4.6 mph - N/A   Mostly Cloudy
6:51 AM 57.9 °F 48.0 °F 70% 29.83 in 10.0 mi North 4.6 mph - N/A   Mostly Cloudy
7:51 AM 55.9 °F 42.1 °F 60% 29.87 in 10.0 mi North 4.6 mph - N/A   Mostly Cloudy
8:51 AM 55.9 °F 39.0 °F 53% 29.91 in 10.0 mi Variable 4.6 mph - N/A   Mostly Cloudy
9:51 AM 57.0 °F 39.0 °F 51% 29.94 in 10.0 mi NNE 8.1 mph - N/A   Mostly Cloudy
10:51 AM 57.0 °F 37.0 °F 47% 29.96 in 10.0 mi Calm Calm - N/A   Mostly Cloudy
11:51 AM 60.1 °F 37.9 °F 44% 29.95 in 10.0 mi Variable 6.9 mph - N/A   Mostly Cloudy
12:51 PM 60.1 °F 37.0 °F 42% 29.94 in 10.0 mi Variable 5.8 mph - N/A   Mostly Cloudy
1:51 PM 59.0 °F 36.0 °F 42% 29.95 in 10.0 mi Variable 5.8 mph - N/A   Mostly Cloudy
2:51 PM 57.9 °F 36.0 °F 44% 29.97 in 10.0 mi North 6.9 mph - N/A   Mostly Cloudy
3:51 PM 57.0 °F 37.0 °F 47% 30.00 in 10.0 mi Variable 3.5 mph - N/A   Mostly Cloudy
4:51 PM 55.0 °F 37.0 °F 51% 30.03 in 10.0 mi NNE 8.1 mph - N/A   Mostly Cloudy
5:51 PM 54.0 °F 36.0 °F 51% 30.05 in 10.0 mi NNW 3.5 mph - N/A   Overcast
6:51 PM 53.1 °F 36.0 °F 52% 30.07 in 10.0 mi North 8.1 mph - N/A   Overcast
7:51 PM 52.0 °F 35.1 °F 53% 30.09 in 10.0 mi North 4.6 mph - N/A   Mostly Cloudy
8:51 PM 52.0 °F 39.0 °F 61% 30.11 in 10.0 mi ENE 9.2 mph - N/A   Overcast
9:51 PM 52.0 °F 39.0 °F 61% 30.12 in 10.0 mi NE 11.5 mph 19.6 mph N/A   Overcast
10:51 PM 51.8 °F 37.4 °F 58% 30.15 in 10.0 mi NE 6.9 mph - N/A   Overcast
11:51 PM 51.1 °F 36.0 °F 56% 30.14 in 10.0 mi NE 10.4 mph - N/A   Overcast